Location: Moscow
(38.8570°N, 84.2291°W)
Time: 00:01:37
(UTC+00:00)

ITAMSAT 1 - Visible Passes

Search period start: 14 March 2026 00:00
Search period end: 24 March 2026 00:00
Orbit: 781 x 794 km, 98.7° (Epoch: 13 March)

Date Brightness Start Highest point End Pass type
(mag) Time Alt. Az. Time Alt. Az. Time Alt. Az.
14 Mar 10.1 03:07:52 16° NNW 03:07:52 16° NNW 03:08:52 10° NNW visible
15 Mar 9.8 02:37:03 18° N 02:37:03 18° N 02:38:22 10° N visible
16 Mar 9.7 02:06:13 15° NNE 02:06:13 15° NNE 02:07:26 10° NNE visible
16 Mar 10.5 03:46:52 12° NNW 03:46:52 12° NNW 03:47:17 10° NNW visible
17 Mar 9.9 01:35:22 11° NE 01:35:22 11° NE 01:35:43 10° NNE visible
17 Mar 10.0 03:16:01 17° NNW 03:16:01 17° NNW 03:17:15 10° NNW visible
18 Mar 9.6 02:45:12 20° N 02:45:12 20° N 02:46:49 10° N visible
19 Mar 9.5 02:14:22 18° NNE 02:14:22 18° NNE 02:16:01 10° N visible
19 Mar 10.5 03:55:01 12° NW 03:55:01 12° NW 03:55:30 10° NW visible
20 Mar 9.7 01:43:32 13° NE 01:43:32 13° NE 01:44:37 10° NNE visible
20 Mar 10.0 03:24:11 19° NNW 03:24:11 19° NNW 03:25:35 10° NNW visible
21 Mar 9.5 02:53:21 23° N 02:53:21 23° N 02:55:15 10° N visible
22 Mar 9.4 02:22:31 22° NNE 02:22:31 22° NNE 02:24:34 10° N visible
22 Mar 10.5 04:03:10 12° NW 04:03:10 12° NW 04:03:39 10° NW visible
23 Mar 9.6 01:51:41 16° NE 01:51:41 16° NE 01:53:24 10° NNE visible
23 Mar 10.0 03:32:20 20° NNW 03:32:20 20° NNW 03:33:53 10° NNW visible
